Other Surface Observations
Issued by NWS Charleston, SC

Home | Current Version | Previous Version | Text Only | Print | Product List | Glossary On
Versions: 1 2 3 4 5 6 7 8 9 10 11 12 13 14 15 16 17 18 19 20 21 22 23 24 25 26 27 28 29 30 31 32 33 34 35 36 37 38 39 40 41 42 43 44 45 46 47 48 49 50
000
SXUS52 KCHS 250425
OSOCHS

MARINE OBSERVATIONS
NATIONAL WEATHER SERVICE CHARLESTON SC
1100 PM EST SAT JAN 24 2015

...DOWNTOWN CHARLESTON AND HARBOR...

CITY           SKY/WX    TMP DP  RH WIND       PRES   REMARKS
WATERFRONT PRK   N/A     48 N/A N/A W6          N/A
FORT JOHNSON   NOT AVBL

...LAKE MOULTRIE...

CITY           SKY/WX    TMP DP  RH WIND       PRES   REMARKS
PINOPOLIS      NOT AVBL

...LAKE AND SUPPLEMENTAL COASTAL OBSERVATIONS...

STATION/POSITION TIME  TEMP    WIND        PRES    WAVE   SWELL
                       AIR SEA DIR/SP/G            HT/PER HT/PER/DIR
                 (UTC) (F)     (DEG/KT/KT) (MB)    (FT/S) (FT/S/D)
FORT PULASKI     0400   48 54  260/ 10/ 13 1015.0R
SAPELO ISLAND    0400   47     270/  6     1015.0S
UPR LAKE MARION  NOT AVBL
WINYAH BAY       0400   45     250/  6     1011.0S
LAKE MURRAY      0400   45     270/  9/ 13 1011.5R
ACE BASIN NERRS  NOT AVBL


...C-MAN AND BUOY OBSERVATIONS...

STATION/POSITION TIME  TEMP    WIND        PRES    WAVE   SWELL
                       AIR SEA DIR/SP/G            HT/PER HT/PER/DIR
                 (UTC) (F)     (DEG/KT/KT) (MB)    (FT/S) (FT/S/D)
BUOY 41004       0400   56 70  290/ 23/ 27 1011.9R   8/ 8   3/10
BUOY 41008       0400   52 55  300/ 21/ 25 1014.0R   3/ 4
FOLLY BEACH CMAN 0400   47     260/  7/ 11 1013.7R
CAPERS NS BUOY   0300   51     290/ 16/ 17   N/A
FRIPP NS BUOY    0300   52     290/ 16/ 17   N/A
5E ST. MARYS GA  0400      58                N/A     2/ 3


STATION/POSITION TIME  TEMP    WIND        PRES    WAVE   SWELL
                       AIR SEA DIR/SP/G            HT/PER HT/PER/DIR
                 (UTC) (F)     (DEG/KT/KT) (MB)    (FT/S) (FT/S/D)
FRYING PAN BUOY  0400   56 66  270/ 21/ 27 1010.3F   8/ 9   5/190/ 9
BUOY 41025       0400   53 71  290/ 25/ 31 1006.9R   9/10   5/160/10
CAPE LOOKOUT NC  0400   49     270/ 17/ 20 1009.0R
BUOY 41002       0303   64 72  290/ 23/ 29 1009.4R  16/11
BUOY 41010       0400   66 77  310/ 19/ 27 1013.6R  10/ 8
ST AUGUSTINE FL  0400   47     290/  6/  7 1016.8R

$$



USA.gov is the U.S. government's official web portal to all federal, state and local government web resources and services.